UAE46 EGKK-EHAM

Flight info

Callsign UAE46
Flight time N/A
Altitude 23000
Route FRANE M604 GASBA M197 REDFA
Aircraft A388/J-SADE2E3FGHIJ3J4J5M1RWXY/L

Departure

Time N/A
Airport London Gatwick Airport (EGKK)

Arrival

Time 2026-04-30 17:54
Airport Amsterdam Airport Schiphol (EHAM)
Time Latitude Longitude Altitude Speed Heading
2026-04-30 17:39 52.22163 3.36909 14285 ft 342 kts 93°
2026-04-30 17:41 52.21887 3.65825 11509 ft 277 kts 94°
2026-04-30 17:42 52.21817 3.71918 11050 ft 264 kts 94°
2026-04-30 17:42 52.21708 3.80814 10056 ft 259 kts 94°
2026-04-30 17:43 52.21634 3.86671 9326 ft 256 kts 94°
2026-04-30 17:44 52.21521 3.95283 8284 ft 251 kts 94°
2026-04-30 17:44 52.21406 4.03704 6916 ft 244 kts 95°
2026-04-30 17:46 52.21205 4.17343 4616 ft 236 kts 95°
2026-04-30 17:47 52.21039 4.27728 3296 ft 229 kts 95°
2026-04-30 17:48 52.20866 4.37896 2079 ft 221 kts 93°
2026-04-30 17:48 52.20748 4.44970 1978 ft 198 kts 94°
2026-04-30 17:49 52.20961 4.52749 1983 ft 164 kts 72°
2026-04-30 17:50 52.23333 4.59257 1986 ft 167 kts 64°
2026-04-30 17:51 52.25037 4.63669 1457 ft 142 kts 65°
2026-04-30 17:52 52.26584 4.67681 891 ft 137 kts 65°
2026-04-30 17:53 52.29113 4.74242 13 ft 132 kts 62°
2026-04-30 17:54 52.30061 4.76567 3 ft 29 kts 29°
2026-04-30 17:55 52.30242 4.76724 4 ft 5 kts 27°
2026-04-30 17:56 52.30378 4.76996 4 ft 11 kts 58°
2026-04-30 17:57 52.30549 4.77440 4 ft 17 kts 58°
2026-04-30 17:58 52.30890 4.77610 4 ft 23 kts
2026-04-30 17:59 52.31495 4.77583 4 ft 18 kts 317°
2026-04-30 18:00 52.31551 4.76607 4 ft 23 kts 267°
2026-04-30 18:00 52.31522 4.75773 4 ft 23 kts 266°
2026-04-30 18:01 52.31469 4.75443 4 ft 11 kts 189°
2026-04-30 18:02 52.31353 4.75544 4 ft 5 kts 88°
2026-04-30 18:02 52.31354 4.75581 4 ft 0 kts 87°